Zurück zum Katalog

STARLINK-11662

AktivKommunikationVLEO
NORAD 63754·PAYLOAD·🇺🇸 United States

Gestartet Apr 29, 2025 von Cape Canaveral Space Force Station

Loading…

Nächste Überflüge (nächste 24 Stunden)

TLE

AktuellSource: CelesTrak SupGP

Epoche: Sep 15, 2026, 02:18 UTC

1 63754C 25089D   26258.09631944 -.00044101  00000+0 -34243-3 0  2586
2 63754  43.0005 230.6526 0001420 265.5664  81.0344 15.70867691    15

Verfolge STARLINK-11662 in Echtzeit mit AllMySat

Download on the App Store